Location: Hyde Place
(34.7139°N, 106.3706°W)
Time: 15:45:05
(UTC+00:00)

Daily predictions for brighter satellites

Satellite Brightness Start Highest point End
(mag) Time Altitude Azimuth Time Altitude Azimuth Time Altitude Azimuth
Cosmos 921 Rocket 3.8 12:09:05 37° SW 12:09:05 37° SW 12:12:09 10° S
Cosmos 2279 Rocket 4.0 12:01:42 10° N 12:07:55 79° E 12:14:06 10° S
Envisat 2.9 12:05:51 10° NNE 12:10:56 88° WNW 12:16:00 10° SSW
SKYMED 2 4.1 12:09:57 10° SSE 12:14:11 58° ENE 12:18:24 10° N
Uosat 12 SS-18 rocket 4.5 12:14:36 29° SW 12:17:10 65° WNW 12:23:09 10° NNE
ATLAS 3B R/B 2.6 12:15:16 10° SSW 12:21:43 83° ESE 12:28:27 10° NNE
SL-19 R/B 4.2 12:19:05 10° S 12:24:40 75° WSW 12:30:16 10° NNW
Cosmos 1151 Rocket 3.1 12:23:48 42° NW 12:24:46 51° W 12:28:59 10° SSW
H-2A R/B 2.9 12:28:04 45° W 12:28:04 45° W 12:31:24 10° SSW
Meteor 2-19 Rocket 4.4 12:22:27 10° S 12:28:30 84° E 12:34:34 10° N
Cosmos 1634 Rocket 4.3 12:24:45 19° NNW 12:28:41 41° W 12:34:24 10° SSW
CZ-4C R/B 4.1 12:29:48 10° SE 12:32:44 39° ENE 12:35:41 10° N
Meteor 2-6 Rocket 4.1 12:29:07 10° NNW 12:34:24 59° W 12:39:42 10° S
Meteor 1-31 Rocket 2.7 12:30:45 10° N 12:34:36 58° WNW 12:38:26 10° SSW
SL-4 R/B 1.8 12:33:52 15° SW 12:36:34 69° SE 12:40:09 10° NE
Cosmos 1833 4.2 12:34:12 15° NNW 12:38:54 69° WSW 12:44:36 10° S
BREEZE-M DEB 2.9 12:37:56 36° W 12:38:56 56° NNW 12:45:08 10° NE
Meteor 2-8 Rocket 4.4 12:34:29 10° NNW 12:40:35 71° W 12:46:38 10° S
Okean 3 Rocket 4.4 12:38:10 10° SW 12:42:03 28° WNW 12:45:59 10° NNW
DELTA 2 R/B (1) 3.9 12:41:22 24° WNW 12:44:28 51° N 12:49:52 10° ENE
MOS 1-B Rocket 4.3 12:39:45 10° S 12:45:51 45° W 12:51:22 10° NNW
SL-8 R/B 3.8 12:46:33 20° NW 12:49:49 70° NE 12:54:34 10° ESE
Cosmos 1328 Rocket 4.1 12:47:58 16° NNW 12:50:59 36° W 12:54:55 10° SSW
USA 215 4.3 12:46:23 10° E 12:52:16 38° NE 12:58:10 10° NNW
CZ-2C R/B 2.9 12:52:58 10° S 12:58:14 47° W 13:03:26 10° NNW
NOAA 12 4.4 12:55:48 10° NNE 13:01:04 74° ESE 13:06:16 10° S
Cosmos 1602 3.9 12:58:03 10° S 13:01:49 75° E 13:05:38 10° N
COSMO-SKYMED 1 3.2 12:58:17 10° SSW 13:02:16 35° W 13:06:16 10° NNW
OAO 2 Rocket 3.8 12:59:49 10° WSW 13:04:57 61° SSE 13:09:59 10° E
SL-27 R/B 2.7 13:05:05 10° NNW 13:08:32 48° WSW 13:11:53 10° S
IRAS Rocket 4.3 13:05:36 10° SSE 13:11:07 86° ENE 13:16:38 10° NNW
ADEOS 3.8 13:06:08 10° N 13:11:07 47° WNW 13:16:05 10° SW
Cosmos 1538 Rocket 4.3 13:11:00 10° NNW 13:16:12 70° ENE 13:21:20 10° SSE
Cosmos 2026 Rocket 4.1 13:10:20 10° S 13:16:41 86° E 13:23:00 10° N
Landsat 5 4.3 13:12:45 10° SSW 13:16:51 34° W 13:20:56 10° NNW
Cosmos 1500 3.4 13:13:50 10° S 13:17:37 73° E 13:21:25 10° N
CZ-4B R/B 3.6 13:17:00 10° SE 13:19:47 25° ENE 13:22:33 10° NNE
Meteor PRIRODA 4.0 13:17:13 10° N 13:20:39 41° WNW 13:24:04 10° SW
Cosmos 2195 Rocket 4.4 13:14:59 10° SSW 13:21:05 73° W 13:27:12 10° N
Cosmos 1656 3.9 13:16:46 10° SSW 13:22:09 72° ESE 13:27:34 10° NNE
Cosmos 1743 Rocket 4.1 13:18:32 10° SSW 13:22:34 36° W 13:26:36 10° NNW
Cosmos 1809 Rocket 4.4 13:18:07 10° S 13:24:16 77° W 13:30:25 10° N
FengYun 1-2 T 4.2 13:19:00 10° NNE 13:24:30 85° WNW 13:29:59 10° SSW
FALCON 9 R/B 3.8 13:04:14 12° WNW 13:24:53 66° SSW 13:30:39 10° SE
Cosmos 2227 Rocket 4.4 13:20:45 10° N 13:25:01 21° ENE 13:29:14 10° ESE
SJ 16-02 2.7 13:26:23 10° WSW 13:29:25 18° WNW 13:32:28 10° NNW
Meteor 1-20 Rocket 4.4 13:25:38 10° SSW 13:31:01 51° WNW 13:36:32 10° N
Cosmos 1666 Rocket 4.1 13:29:19 10° S 13:33:44 67° E 13:38:11 10° NNE
Cosmos 1515 3.8 13:30:26 10° NNW 13:34:09 54° W 13:37:51 10° S
ASTRO E2 4.5 13:31:20 10° SW 13:34:51 31° SSE 13:38:22 10° E
CZ-2C R/B 3.5 13:30:34 10° N 13:35:11 40° WNW 13:40:02 10° SW
H-2A R/B 3.0 13:30:34 10° NNE 13:35:21 51° E 13:40:11 10° S
Cosmos 44 4.3 13:31:52 10° SSW 13:37:10 60° ESE 13:42:23 10° NE
